,,Stat6,,Stat2,,Stat8,,Stat9,,Stat10,,Wind1,,Wind1,
time,status,PA1M_AVG,status,PR1M_SUM,status,RH1M_AVG,status,SR1M_AVG,status,TA1M_AVG,status,W1dAve1m,status,W1sAve1m,
2008-05-19, 00:00:00,VALID,918.525,VALID,0,VALID,98.7325,VALID,0.0169808,VALID,17.9885,VALID,149,VALID,0,
2008-05-19, 00:01:00,VALID,918.511,VALID,0,VALID,98.8024,VALID,0,VALID,17.9982,VALID,146,VALID,0,
2008-05-19, 00:02:00,VALID,918.517,VALID,0,VALID,98.6358,VALID,0.0169808,VALID,17.982,VALID,146,VALID,0,
2008-05-19, 00:03:00,VALID,918.498,VALID,0,VALID,98.5532,VALID,0.0169808,VALID,17.9429,VALID,146,VALID,0,
2008-05-19, 00:04:00,VALID,918.477,VALID,0,VALID,98.8088,VALID,0.0679233,VALID,17.9496,VALID,146,VALID,0,
2008-05-19, 00:05:00,VALID,918.446,VALID,0,VALID,98.8762,VALID,0.0509425,VALID,17.9364,VALID,146,VALID,0,
2008-05-19, 00:06:00,VALID,918.44,VALID,0,VALID,98.7515,VALID,0.0169808,VALID,17.9593,VALID,145,VALID,0,
2008-05-19, 00:07:00,VALID,918.434,VALID,0,VALID,98.6384,VALID,0,VALID,17.9139,VALID,140,VALID,0,
2008-05-19, 00:08:00,VALID,918.447,VALID,0,VALID,98.8151,VALID,0.0679233,VALID,17.8977,VALID,139,VALID,0,
2008-05-19, 00:09:00,VALID,918.452,VALID,0,VALID,98.6574,VALID,0.0509425,VALID,17.859,VALID,139,VALID,0,
2008-05-19, 00:10:00,VALID,918.437,VALID,0,VALID,98.7999,VALID,0.0509425,VALID,17.8134,VALID,140,VALID,0,
2008-05-19, 00:11:00,VALID,918.437,VALID,0,VALID,98.9486,VALID,0.0169808,VALID,17.8199,VALID,142,VALID,0,
2008-05-19, 00:12:00,VALID,918.416,VALID,0,VALID,98.646,VALID,0,VALID,17.8101,VALID,146,VALID,0,
2008-05-19, 00:13:00,VALID,918.425,VALID,0,VALID,98.9029,VALID,0.0169808,VALID,17.8266,VALID,155,VALID,0,
2008-05-19, 00:14:00,VALID,918.41,VALID,0,VALID,98.7973,VALID,0,VALID,17.8201,VALID,148,VALID,0,
2008-05-19, 00:15:00,VALID,918.407,VALID,0,VALID,99.0326,VALID,0.0169808,VALID,17.8359,VALID,139,VALID,0,
2008-05-19, 00:16:00,VALID,918.383,VALID,0,VALID,98.9881,VALID,0.0509425,VALID,17.8523,VALID,139,VALID,0,
2008-05-19, 00:17:00,VALID,918.368,VALID,0,VALID,98.8914,VALID,0.0169808,VALID,17.8458,VALID,139,VALID,0,
2008-05-19, 00:18:00,VALID,918.335,VALID,0,VALID,98.6714,VALID,0.0339617,VALID,17.8261,VALID,139,VALID,0,
2008-05-19, 00:19:00,VALID,918.302,VALID,0,VALID,98.4006,VALID,0.0339617,VALID,17.7643,VALID,139,VALID,0,
2008-05-19, 00:20:00,VALID,918.313,VALID,0,VALID,98.571,VALID,0.0339617,VALID,17.7356,VALID,140,VALID,0,
2008-05-19, 00:21:00,VALID,918.239,VALID,0,VALID,98.5786,VALID,0.0169808,VALID,17.7258,VALID,140,VALID,0,
2008-05-19, 00:22:00,VALID,918.227,VALID,0,VALID,98.9296,VALID,0.0169808,VALID,17.7159,VALID,138,VALID,0,
2008-05-19, 00:23:00,VALID,918.22,VALID,0,VALID,99.1063,VALID,-0.0509425,VALID,17.7399,VALID,137,VALID,0,
2008-05-19, 00:24:00,VALID,918.23,VALID,0,VALID,99.058,VALID,-0.0339617,VALID,17.7531,VALID,140,VALID,0,
2008-05-19, 00:25:00,VALID,918.253,VALID,0,VALID,99.0097,VALID,-0.0169808,VALID,17.7631,VALID,141,VALID,0.0239955,
2008-05-19, 00:26:00,VALID,918.243,VALID,0,VALID,98.9601,VALID,-0.0679233,VALID,17.7724,VALID,147,VALID,1.11035,
2008-05-19, 00:27:00,VALID,918.264,VALID,0,VALID,98.9156,VALID,0,VALID,17.8307,VALID,154,VALID,1.13491,
2008-05-19, 00:28:00,VALID,918.249,VALID,0,VALID,98.7185,VALID,-0.0339617,VALID,17.8629,VALID,149,VALID,1.37518,
2008-05-19, 00:29:00,VALID,918.244,VALID,0,VALID,98.6206,VALID,-0.0169808,VALID,17.9025,VALID,147,VALID,1.19318,
2008-05-19, 00:30:00,VALID,918.227,VALID,0,VALID,98.7528,VALID,-0.0849042,VALID,17.9183,VALID,147,VALID,1.25953,
2008-05-19, 00:31:00,VALID,918.2,VALID,0,VALID,98.6791,VALID,0,VALID,17.9542,VALID,147,VALID,1.00801,
2008-05-19, 00:32:00,VALID,918.181,VALID,0,VALID,98.6384,VALID,-0.0339617,VALID,17.9637,VALID,147,VALID,0.749428,
2008-05-19, 00:33:00,VALID,918.161,VALID,0,VALID,98.4018,VALID,-0.0169808,VALID,17.9472,VALID,140,VALID,0.942708,
2008-05-19, 00:34:00,VALID,918.147,VALID,0,VALID,98.178,VALID,-0.0339617,VALID,17.8921,VALID,140,VALID,0.697266,
2008-05-19, 00:35:00,VALID,918.128,VALID,0,VALID,97.9453,VALID,-0.0339617,VALID,17.8273,VALID,140,VALID,0.644626,
2008-05-19, 00:36:00,VALID,918.128,VALID,0,VALID,98.2836,VALID,-0.0339617,VALID,17.7851,VALID,140,VALID,0.836128,
2008-05-19, 00:37:00,VALID,918.11,VALID,0,VALID,98.6562,VALID,-0.0509425,VALID,17.7923,VALID,146,VALID,1.08799,
2008-05-19, 00:38:00,VALID,918.116,VALID,0,VALID,98.9703,VALID,-0.0679233,VALID,17.8085,VALID,148,VALID,1.31686,
2008-05-19, 00:39:00,VALID,918.131,VALID,0,VALID,98.9334,VALID,-0.0509425,VALID,17.8506,VALID,152,VALID,1.24375,
2008-05-19, 00:40:00,VALID,918.139,VALID,0,VALID,98.6702,VALID,-0.0509425,VALID,17.8729,VALID,159,VALID,1.22656,
2008-05-19, 00:41:00,VALID,918.162,VALID,0,VALID,98.6104,VALID,-0.0169808,VALID,17.8958,VALID,162,VALID,1.22798,
2008-05-19, 00:42:00,VALID,918.151,VALID,0,VALID,98.6651,VALID,-0.0169808,VALID,17.9178,VALID,158,VALID,1.23347,
2008-05-19, 00:43:00,VALID,918.139,VALID,0,VALID,98.5951,VALID,-0.0169808,VALID,17.9313,VALID,156,VALID,1.00945,
2008-05-19, 00:44:00,VALID,918.11,VALID,0,VALID,98.8444,VALID,-0.0339617,VALID,17.9509,VALID,153,VALID,1.19913,
2008-05-19, 00:45:00,VALID,918.084,VALID,0,VALID,99.0453,VALID,-0.0679233,VALID,17.9931,VALID,153,VALID,1.15376,
2008-05-19, 00:46:00,VALID,918.078,VALID,0,VALID,98.7719,VALID,-0.0509425,VALID,17.9963,VALID,160,VALID,0.867578,
2008-05-19, 00:47:00,VALID,918.07,VALID,0,VALID,98.6511,VALID,0,VALID,17.957,VALID,160,VALID,0.910334,
2008-05-19, 00:48:00,VALID,918.07,VALID,0,VALID,98.6905,VALID,0,VALID,17.931,VALID,163,VALID,0.880208,
2008-05-19, 00:49:00,VALID,918.058,VALID,0,VALID,98.796,VALID,0,VALID,17.9081,VALID,164,VALID,0.923047,
2008-05-19, 00:50:00,VALID,918.034,VALID,0,VALID,98.8393,VALID,-0.0169808,VALID,17.8692,VALID,164,VALID,0.974653,
2008-05-19, 00:51:00,VALID,917.995,VALID,0,VALID,98.8037,VALID,-0.0339617,VALID,17.8335,VALID,164,VALID,0.777344,
2008-05-19, 00:52:00,VALID,917.981,VALID,0,VALID,98.9079,VALID,0,VALID,17.7909,VALID,162,VALID,0.899117,
2008-05-19, 00:53:00,VALID,917.959,VALID,0,VALID,99.1737,VALID,-0.0169808,VALID,17.7816,VALID,146,VALID,0.956214,
2008-05-19, 00:54:00,VALID,917.921,VALID,0,VALID,99.676,VALID,-0.0169808,VALID,17.8245,VALID,141,VALID,0.894531,
2008-05-19, 00:55:00,VALID,917.923,VALID,0,VALID,99.6022,VALID,0,VALID,17.8437,VALID,123,VALID,0.90987,
2008-05-19, 00:56:00,VALID,917.915,VALID,0,VALID,99.5933,VALID,-0.0169808,VALID,17.8731,VALID,122,VALID,0.862645,
2008-05-19, 00:57:00,VALID,917.9,VALID,0,VALID,99.4115,VALID,-0.0509425,VALID,17.8956,VALID,139,VALID,0.880556,
2008-05-19, 00:58:00,VALID,917.896,VALID,0,VALID,98.9283,VALID,-0.0169808,VALID,17.8861,VALID,156,VALID,0.696911,
2008-05-19, 00:59:00,VALID,917.894,VALID,0,VALID,98.2594,VALID,0,VALID,17.818,VALID,156,VALID,0.764717,
2008-05-19, 01:00:00,VALID,917.896,VALID,0,VALID,98.5036,VALID,-0.0169808,VALID,17.7402,VALID,156,VALID,0.948361,
2008-05-19, 01:01:00,VALID,917.906,VALID,0,VALID,98.8723,VALID,-0.0339617,VALID,17.7629,VALID,156,VALID,0.942522,
2008-05-19, 01:02:00,VALID,917.905,VALID,0,VALID,98.8723,VALID,-0.0169808,VALID,17.7916,VALID,160,VALID,0.875801,
2008-05-19, 01:03:00,VALID,917.909,VALID,0,VALID,98.7274,VALID,-0.0679233,VALID,17.8018,VALID,159,VALID,1.03182,
2008-05-19, 01:04:00,VALID,917.888,VALID,0,VALID,98.7197,VALID,-0.0509425,VALID,17.8085,VALID,156,VALID,1.05964,
2008-05-19, 01:05:00,VALID,917.875,VALID,0,VALID,98.8342,VALID,-0.0509425,VALID,17.7918,VALID,153,VALID,0.992365,
2008-05-19, 01:06:00,VALID,917.86,VALID,0,VALID,98.8812,VALID,-0.0679233,VALID,17.802,VALID,153,VALID,0.795759,
2008-05-19, 01:07:00,VALID,917.837,VALID,0,VALID,98.8749,VALID,-0.0509425,VALID,17.7955,VALID,141,VALID,0.79043,
2008-05-19, 01:08:00,VALID,917.803,VALID,0,VALID,99.1724,VALID,-0.0339617,VALID,17.8115,VALID,135,VALID,1.05506,
2008-05-19, 01:09:00,VALID,917.783,VALID,0,VALID,99.1038,VALID,-0.0509425,VALID,17.8502,VALID,121,VALID,0.839164,
2008-05-19, 01:10:00,VALID,917.776,VALID,0,VALID,98.9016,VALID,-0.0169808,VALID,17.8666,VALID,121,VALID,0.803052,
2008-05-19, 01:11:00,VALID,917.775,VALID,0,VALID,98.6307,VALID,-0.0169808,VALID,17.8634,VALID,121,VALID,0.427591,
2008-05-19, 01:12:00,VALID,917.78,VALID,0,VALID,98.3357,VALID,-0.0169808,VALID,17.827,VALID,121,VALID,0,
2008-05-19, 01:13:00,VALID,917.765,VALID,0,VALID,98.2315,VALID,-0.0169808,VALID,17.7784,VALID,121,VALID,0,
2008-05-19, 01:14:00,VALID,917.764,VALID,0,VALID,98.0191,VALID,-0.0169808,VALID,17.7365,VALID,121,VALID,0.0425145,
2008-05-19, 01:15:00,VALID,917.733,VALID,0,VALID,97.6262,VALID,-0.0169808,VALID,17.6262,VALID,123,VALID,0.650073,
2008-05-19, 01:16:00,VALID,917.7,VALID,0,VALID,97.9848,VALID,-0.0339617,VALID,17.5253,VALID,133,VALID,0.9246,
2008-05-19, 01:17:00,VALID,917.654,VALID,0,VALID,98.7236,VALID,-0.0169808,VALID,17.5611,VALID,119,VALID,1.02507,
2008-05-19, 01:18:00,VALID,917.616,VALID,0,VALID,99.0402,VALID,-0.0169808,VALID,17.5973,VALID,115,VALID,1.03507,
2008-05-19, 01:19:00,VALID,917.582,VALID,0,VALID,99.208,VALID,0,VALID,17.6556,VALID,114,VALID,1.08327,
2008-05-19, 01:20:00,VALID,917.56,VALID,0,VALID,99.2271,VALID,-0.0339617,VALID,17.7175,VALID,116,VALID,1.23958,
2008-05-19, 01:21:00,VALID,917.533,VALID,0,VALID,98.796,VALID,-0.0169808,VALID,17.7594,VALID,124,VALID,1.12214,
2008-05-19, 01:22:00,VALID,917.534,VALID,0,VALID,97.6999,VALID,-0.0509425,VALID,17.6846,VALID,154,VALID,1.04781,
2008-05-19, 01:23:00,VALID,917.52,VALID,0,VALID,97.8551,VALID,-0.0169808,VALID,17.5841,VALID,162,VALID,1.2702,
2008-05-19, 01:24:00,VALID,917.51,VALID,0,VALID,98.618,VALID,-0.0339617,VALID,17.5743,VALID,151,VALID,1.44291,
2008-05-19, 01:25:00,VALID,917.497,VALID,0,VALID,99.0567,VALID,-0.0169808,VALID,17.6457,VALID,145,VALID,1.1161,
2008-05-19, 01:26:00,VALID,917.481,VALID,0,VALID,98.4832,VALID,-0.0169808,VALID,17.6394,VALID,144,VALID,0.706854,
2008-05-19, 01:27:00,VALID,917.441,VALID,0,VALID,98.4489,VALID,0,VALID,17.5938,VALID,140,VALID,0.908482,
2008-05-19, 01:28:00,VALID,917.426,VALID,0,VALID,98.4629,VALID,-0.0169808,VALID,17.5387,VALID,138,VALID,0.81955,
2008-05-19, 01:29:00,VALID,917.406,VALID,0,VALID,98.4464,VALID,-0.0169808,VALID,17.4732,VALID,135,VALID,0.706076,
2008-05-19, 01:30:00,VALID,917.385,VALID,0,VALID,98.4947,VALID,-0.0169808,VALID,17.3988,VALID,138,VALID,0.788491,
2008-05-19, 01:31:00,VALID,917.379,VALID,0,VALID,98.8558,VALID,-0.0169808,VALID,17.3571,VALID,140,VALID,0.947493,
2008-05-19, 01:32:00,VALID,917.374,VALID,0,VALID,99.016,VALID,-0.0169808,VALID,17.3381,VALID,137,VALID,0.732777,
2008-05-19, 01:33:00,VALID,917.369,VALID,0,VALID,99.1305,VALID,-0.0339617,VALID,17.2853,VALID,125,VALID,0.929315,
2008-05-19, 01:34:00,VALID,917.348,VALID,0,VALID,99.1941,VALID,-0.0339617,VALID,17.2633,VALID,119,VALID,0.771763,
2008-05-19, 01:35:00,VALID,917.32,VALID,0,VALID,99.2157,VALID,-0.0339617,VALID,17.2181,VALID,118,VALID,0.848047,
2008-05-19, 01:36:00,VALID,917.298,VALID,0,VALID,99.4547,VALID,-0.0339617,VALID,17.1987,VALID,113,VALID,1.07736,
2008-05-19, 01:37:00,VALID,917.277,VALID,0,VALID,99.7116,VALID,-0.0169808,VALID,17.2337,VALID,112,VALID,1.00872,
2008-05-19, 01:38:00,VALID,917.273,VALID,0,VALID,99.676,VALID,-0.0169808,VALID,17.2696,VALID,121,VALID,0.81715,
2008-05-19, 01:39:00,VALID,917.277,VALID,0,VALID,99.4166,VALID,-0.0169808,VALID,17.2925,VALID,131,VALID,0.515625,
2008-05-19, 01:40:00,VALID,917.253,VALID,0,VALID,99.3098,VALID,0,VALID,17.289,VALID,131,VALID,0.428125,
2008-05-19, 01:41:00,VALID,917.236,VALID,0,VALID,98.8622,VALID,0,VALID,17.2694,VALID,131,VALID,0.029154,
2008-05-19, 01:42:00,VALID,917.196,VALID,0,VALID,98.5341,VALID,-0.0509425,VALID,17.2078,VALID,131,VALID,0,
2008-05-19, 01:43:00,VALID,917.167,VALID,0,VALID,98.6816,VALID,-0.0509425,VALID,17.1825,VALID,131,VALID,0.0678267,
2008-05-19, 01:44:00,VALID,917.147,VALID,0,VALID,98.7223,VALID,-0.0169808,VALID,17.179,VALID,131,VALID,0.00230824,
2008-05-19, 01:45:00,VALID,917.141,VALID,0,VALID,98.1641,VALID,-0.0339617,VALID,17.0945,VALID,131,VALID,0,
2008-05-19, 01:46:00,VALID,917.141,VALID,0,VALID,98.1475,VALID,-0.0339617,VALID,16.9847,VALID,131,VALID,0,
2008-05-19, 01:47:00,VALID,917.137,VALID,0,VALID,98.5354,VALID,-0.0509425,VALID,16.9099,VALID,131,VALID,0,
2008-05-19, 01:48:00,VALID,917.133,VALID,0,VALID,98.796,VALID,-0.0339617,VALID,16.8777,VALID,131,VALID,0,
2008-05-19, 01:49:00,VALID,917.117,VALID,0,VALID,98.8227,VALID,-0.0509425,VALID,16.8155,VALID,131,VALID,0,
2008-05-19, 01:50:00,VALID,917.089,VALID,0,VALID,98.9156,VALID,-0.0339617,VALID,16.7638,VALID,131,VALID,0,
2008-05-19, 01:51:00,VALID,917.081,VALID,0,VALID,98.9016,VALID,-0.0169808,VALID,16.7118,VALID,131,VALID,0,
2008-05-19, 01:52:00,VALID,917.069,VALID,0,VALID,98.6613,VALID,-0.0509425,VALID,16.5786,VALID,131,VALID,0,
2008-05-19, 01:53:00,VALID,917.073,VALID,0,VALID,99.5743,VALID,0,VALID,16.6139,VALID,131,VALID,0.203852,
2008-05-19, 01:54:00,VALID,917.092,VALID,0,VALID,99.751,VALID,0.0849042,VALID,16.6558,VALID,131,VALID,0.0351563,
2008-05-19, 01:55:00,VALID,917.091,VALID,0,VALID,99.6925,VALID,0.0679233,VALID,16.6586,VALID,131,VALID,0.00106534,
2008-05-19, 01:56:00,VALID,917.099,VALID,0,VALID,99.7129,VALID,0.0509425,VALID,16.6681,VALID,131,VALID,0,
2008-05-19, 01:57:00,VALID,917.102,VALID,0,VALID,99.7269,VALID,0.0849042,VALID,16.6781,VALID,131,VALID,0,
2008-05-19, 01:58:00,VALID,917.091,VALID,0,VALID,99.9334,VALID,0.0679233,VALID,16.7077,VALID,131,VALID,0,
2008-05-19, 01:59:00,VALID,917.07,VALID,0,VALID,100,VALID,0.0849042,VALID,16.785,VALID,131,VALID,0,
2008-05-19, 02:00:00,VALID,917.058,VALID,0,VALID,99.5323,VALID,0.101885,VALID,16.7848,VALID,131,VALID,0,
2008-05-19, 02:01:00,VALID,917.056,VALID,0,VALID,99.2297,VALID,0.101885,VALID,16.7362,VALID,131,VALID,0,
2008-05-19, 02:02:00,VALID,917.045,VALID,0,VALID,99.4408,VALID,0.0509425,VALID,16.7297,VALID,131,VALID,0,
2008-05-19, 02:03:00,VALID,917.043,VALID,0,VALID,99.512,VALID,0.101885,VALID,16.7621,VALID,131,VALID,0,
2008-05-19, 02:04:00,VALID,917.039,VALID,0,VALID,99.2487,VALID,0.0849042,VALID,16.7362,VALID,131,VALID,0,
2008-05-19, 02:05:00,VALID,917.018,VALID,0,VALID,99.3085,VALID,0.0849042,VALID,16.7267,VALID,131,VALID,0,
2008-05-19, 02:06:00,VALID,917.005,VALID,0,VALID,99.8232,VALID,0.101885,VALID,16.7781,VALID,131,VALID,0,
2008-05-19, 02:07:00,VALID,917.007,VALID,0,VALID,99.9021,VALID,0.0679233,VALID,16.8564,VALID,131,VALID,0,
2008-05-19, 02:08:00,VALID,917.02,VALID,0,VALID,99.8489,VALID,0.0509425,VALID,16.9054,VALID,131,VALID,0,
2008-05-19, 02:09:00,VALID,917.036,VALID,0,VALID,99.7396,VALID,0.0679233,VALID,16.9117,VALID,131,VALID,0,
2008-05-19, 02:10:00,VALID,917.046,VALID,0,VALID,99.5794,VALID,0.0679233,VALID,16.9443,VALID,131,VALID,0,
2008-05-19, 02:11:00,VALID,917.061,VALID,0,VALID,99.5908,VALID,0.0339617,VALID,16.9542,VALID,131,VALID,0,
2008-05-19, 02:12:00,VALID,917.051,VALID,0,VALID,99.6709,VALID,0.0679233,VALID,16.9962,VALID,131,VALID,0,
2008-05-19, 02:13:00,VALID,917.059,VALID,0,VALID,98.9753,VALID,0.0339617,VALID,16.9925,VALID,131,VALID,0,
2008-05-19, 02:14:00,VALID,917.049,VALID,0,VALID,98.1564,VALID,0.0509425,VALID,16.9056,VALID,133,VALID,0,
2008-05-19, 02:15:00,VALID,917.044,VALID,0,VALID,97.5308,VALID,0.0339617,VALID,16.7466,VALID,135,VALID,0,
2008-05-19, 02:16:00,VALID,917.032,VALID,0,VALID,97.4469,VALID,0,VALID,16.5845,VALID,135,VALID,0.0388889,
2008-05-19, 02:17:00,VALID,917.025,VALID,0,VALID,97.6122,VALID,0.0169808,VALID,16.4907,VALID,135,VALID,0.221354,
2008-05-19, 02:18:00,VALID,917.009,VALID,0,VALID,97.7508,VALID,0.0169808,VALID,16.4226,VALID,135,VALID,0.504464,
2008-05-19, 02:19:00,VALID,916.982,VALID,0,VALID,97.8385,VALID,0.0509425,VALID,16.3671,VALID,135,VALID,0.386009,
2008-05-19, 02:20:00,VALID,916.952,VALID,0,VALID,98.0572,VALID,0.0679233,VALID,16.3218,VALID,135,VALID,0.41369,
2008-05-19, 02:21:00,VALID,916.927,VALID,0,VALID,98.838,VALID,0.0339617,VALID,16.3313,VALID,135,VALID,0.270712,
2008-05-19, 02:22:00,VALID,916.914,VALID,0,VALID,98.8965,VALID,0.0509425,VALID,16.3643,VALID,135,VALID,0,
2008-05-19, 02:23:00,VALID,916.908,VALID,0,VALID,98.6587,VALID,-0.0169808,VALID,16.3291,VALID,135,VALID,0,
2008-05-19, 02:24:00,VALID,916.916,VALID,0,VALID,99.2335,VALID,-0.0339617,VALID,16.3234,VALID,135,VALID,0.00101902,
2008-05-19, 02:25:00,VALID,916.936,VALID,0,VALID,99.7078,VALID,-0.0339617,VALID,16.3718,VALID,135,VALID,0,
2008-05-19, 02:26:00,VALID,916.943,VALID,0,VALID,99.512,VALID,-0.0509425,VALID,16.3818,VALID,135,VALID,0,
2008-05-19, 02:27:00,VALID,916.95,VALID,0,VALID,99.25,VALID,-0.0339617,VALID,16.2997,VALID,136,VALID,0,
2008-05-19, 02:28:00,VALID,916.971,VALID,0,VALID,99.8194,VALID,-0.0679233,VALID,16.2971,VALID,148,VALID,0,
2008-05-19, 02:29:00,VALID,916.975,VALID,0,VALID,100,VALID,-0.0679233,VALID,16.3526,VALID,158,VALID,0.0206473,
2008-05-19, 02:30:00,VALID,916.973,VALID,0,VALID,100,VALID,-0.0339617,VALID,16.4012,VALID,171,VALID,0.914608,
2008-05-19, 02:31:00,VALID,916.99,VALID,0,VALID,100,VALID,-0.0339617,VALID,16.5238,VALID,165,VALID,0.93064,
2008-05-19, 02:32:00,VALID,916.96,VALID,0,VALID,100,VALID,-0.0509425,VALID,16.618,VALID,163,VALID,0.722384,
2008-05-19, 02:33:00,VALID,916.945,VALID,0,VALID,100,VALID,-0.0339617,VALID,16.6605,VALID,161,VALID,0.870808,
2008-05-19, 02:34:00,VALID,916.92,VALID,0,VALID,100,VALID,-0.0509425,VALID,16.7022,VALID,162,VALID,0.788681,
2008-05-19, 02:35:00,VALID,916.903,VALID,0,VALID,100,VALID,-0.0509425,VALID,16.7221,VALID,162,VALID,0.474085,
2008-05-19, 02:36:00,VALID,916.89,VALID,0,VALID,100,VALID,-0.0509425,VALID,16.6824,VALID,162,VALID,0,
2008-05-19, 02:37:00,VALID,916.896,VALID,0,VALID,99.9926,VALID,-0.0679233,VALID,16.6404,VALID,162,VALID,0.182347,
2008-05-19, 02:38:00,VALID,916.909,VALID,0,VALID,99.9087,VALID,-0.0679233,VALID,16.5985,VALID,162,VALID,0.51242,
2008-05-19, 02:39:00,VALID,916.918,VALID,0,VALID,100,VALID,-0.0849042,VALID,16.5856,VALID,162,VALID,0.697599,
2008-05-19, 02:40:00,VALID,916.92,VALID,0,VALID,99.8703,VALID,-0.0339617,VALID,16.5696,VALID,163,VALID,0.678993,
2008-05-19, 02:41:00,VALID,916.901,VALID,0,VALID,99.9662,VALID,-0.0679233,VALID,16.5406,VALID,164,VALID,1.04812,
2008-05-19, 02:42:00,VALID,916.888,VALID,0,VALID,100,VALID,-0.0509425,VALID,16.6054,VALID,155,VALID,1.04599,
2008-05-19, 02:43:00,VALID,916.882,VALID,0,VALID,100,VALID,-0.0509425,VALID,16.6465,VALID,147,VALID,0.95476,
2008-05-19, 02:44:00,VALID,916.875,VALID,0,VALID,100,VALID,-0.0339617,VALID,16.6791,VALID,143,VALID,0.846912,
2008-05-19, 02:45:00,VALID,916.854,VALID,0,VALID,100,VALID,-0.0849042,VALID,16.6826,VALID,143,VALID,0.867773,
2008-05-19, 02:46:00,VALID,916.854,VALID,0,VALID,100,VALID,-0.0679233,VALID,16.7092,VALID,143,VALID,0.904883,
2008-05-19, 02:47:00,VALID,916.847,VALID,0,VALID,100,VALID,-0.0679233,VALID,16.7347,VALID,143,VALID,0.460938,
2008-05-19, 02:48:00,VALID,916.837,VALID,0,VALID,100,VALID,-0.0679233,VALID,16.7541,VALID,143,VALID,0.0025436,
2008-05-19, 02:49:00,VALID,916.826,VALID,0,VALID,100,VALID,-0.0509425,VALID,16.7379,VALID,143,VALID,0.465625,
2008-05-19, 02:50:00,VALID,916.813,VALID,0,VALID,100,VALID,-0.0679233,VALID,16.7602,VALID,141,VALID,0.814918,
2008-05-19, 02:51:00,VALID,916.8,VALID,0,VALID,100,VALID,-0.0849042,VALID,16.8159,VALID,142,VALID,0.688616,
2008-05-19, 02:52:00,VALID,916.791,VALID,0,VALID,100,VALID,-0.118866,VALID,16.8092,VALID,142,VALID,0.702398,
2008-05-19, 02:53:00,VALID,916.791,VALID,0,VALID,99.8319,VALID,-0.0169808,VALID,16.7498,VALID,142,VALID,0.880469,
2008-05-19, 02:54:00,VALID,916.786,VALID,0,VALID,99.8995,VALID,0.0509425,VALID,16.6945,VALID,144,VALID,1.0974,
2008-05-19, 02:55:00,VALID,916.785,VALID,0,VALID,100,VALID,0.0509425,VALID,16.7239,VALID,148,VALID,1.33162,
2008-05-19, 02:56:00,VALID,916.794,VALID,0,VALID,100,VALID,0,VALID,16.7792,VALID,148,VALID,1.29669,
2008-05-19, 02:57:00,VALID,916.801,VALID,0,VALID,100,VALID,0.0169808,VALID,16.8179,VALID,148,VALID,1.22857,
2008-05-19, 02:58:00,VALID,916.85,VALID,0,VALID,100,VALID,0,VALID,16.8505,VALID,153,VALID,1.35857,
2008-05-19, 02:59:00,VALID,916.874,VALID,0,VALID,100,VALID,0.0169808,VALID,16.87,VALID,153,VALID,1.16988,
2008-05-19, 03:00:00,VALID,916.893,VALID,0,VALID,100,VALID,0,VALID,16.8732,VALID,153,VALID,1.33251,
2008-05-19, 03:01:00,VALID,916.907,VALID,0,VALID,100,VALID,0,VALID,16.8602,VALID,151,VALID,1.44677,
2008-05-19, 03:02:00,VALID,916.897,VALID,0,VALID,100,VALID,0.0169808,VALID,16.8341,VALID,150,VALID,1.33239,
2008-05-19, 03:03:00,VALID,916.906,VALID,0,VALID,100,VALID,0.0849042,VALID,16.7915,VALID,142,VALID,0.811098,
2008-05-19, 03:04:00,VALID,916.899,VALID,0,VALID,100,VALID,0.0169808,VALID,16.7626,VALID,143,VALID,1.07122,
2008-05-19, 03:05:00,VALID,916.887,VALID,0,VALID,100,VALID,0.0169808,VALID,16.7563,VALID,140,VALID,1.19159,
2008-05-19, 03:06:00,VALID,916.857,VALID,0,VALID,100,VALID,0.0679233,VALID,16.7433,VALID,129,VALID,1.3459,
2008-05-19, 03:07:00,VALID,916.838,VALID,0,VALID,99.941,VALID,0.0509425,VALID,16.7403,VALID,121,VALID,0.810902,
2008-05-19, 03:08:00,VALID,916.821,VALID,0,VALID,99.7307,VALID,0.0339617,VALID,16.6884,VALID,115,VALID,1.04348,
2008-05-19, 03:09:00,VALID,916.832,VALID,0,VALID,99.6913,VALID,0,VALID,16.6465,VALID,112,VALID,0.88058,
2008-05-19, 03:10:00,VALID,916.819,VALID,0,VALID,99.7599,VALID,-0.0339617,VALID,16.6074,VALID,119,VALID,0.883203,
2008-05-19, 03:11:00,VALID,916.817,VALID,0,VALID,99.6824,VALID,0,VALID,16.6015,VALID,133,VALID,0.747332,
2008-05-19, 03:12:00,VALID,916.827,VALID,0,VALID,99.5946,VALID,-0.0169808,VALID,16.5754,VALID,148,VALID,0.207508,
2008-05-19, 03:13:00,VALID,916.804,VALID,0,VALID,99.5743,VALID,-0.0169808,VALID,16.5426,VALID,149,VALID,0,
2008-05-19, 03:14:00,VALID,916.805,VALID,0,VALID,99.4217,VALID,-0.0339617,VALID,16.5102,VALID,149,VALID,0,
2008-05-19, 03:15:00,VALID,916.775,VALID,0,VALID,99.1635,VALID,0.0169808,VALID,16.4455,VALID,144,VALID,0,
2008-05-19, 03:16:00,VALID,916.787,VALID,0,VALID,99.587,VALID,0,VALID,16.3937,VALID,140,VALID,0,
2008-05-19, 03:17:00,VALID,916.803,VALID,0,VALID,99.4891,VALID,-0.0169808,VALID,16.374,VALID,140,VALID,0,
2008-05-19, 03:18:00,VALID,916.78,VALID,0,VALID,99.8207,VALID,0.0169808,VALID,16.3189,VALID,140,VALID,0,
2008-05-19, 03:19:00,VALID,916.774,VALID,0,VALID,99.9034,VALID,0,VALID,16.3254,VALID,140,VALID,0,
2008-05-19, 03:20:00,VALID,916.745,VALID,0,VALID,99.8273,VALID,0.0339617,VALID,16.2928,VALID,147,VALID,0,
2008-05-19, 03:21:00,VALID,916.73,VALID,0,VALID,99.9491,VALID,0.0339617,VALID,16.2768,VALID,152,VALID,0,
2008-05-19, 03:22:00,VALID,916.716,VALID,0,VALID,100,VALID,0,VALID,16.2738,VALID,159,VALID,0,
2008-05-19, 03:23:00,VALID,916.714,VALID,0,VALID,99.8527,VALID,-0.0339617,VALID,16.2485,VALID,153,VALID,0,
2008-05-19, 03:24:00,VALID,916.704,VALID,0,VALID,99.9799,VALID,0.0169808,VALID,16.2442,VALID,150,VALID,0,
2008-05-19, 03:25:00,VALID,916.712,VALID,0,VALID,100,VALID,0,VALID,16.3319,VALID,142,VALID,0,
2008-05-19, 03:26:00,VALID,916.718,VALID,0,VALID,100,VALID,-0.0169808,VALID,16.4745,VALID,140,VALID,0,
2008-05-19, 03:27:00,VALID,916.702,VALID,0,VALID,100,VALID,0.0169808,VALID,16.5521,VALID,141,VALID,0,
2008-05-19, 03:28:00,VALID,916.696,VALID,0,VALID,100,VALID,0,VALID,16.6366,VALID,140,VALID,0,
2008-05-19, 03:29:00,VALID,916.712,VALID,0,VALID,100,VALID,0,VALID,16.6949,VALID,140,VALID,0,
2008-05-19, 03:30:00,VALID,916.725,VALID,0,VALID,100,VALID,0,VALID,16.75,VALID,145,VALID,0,
2008-05-19, 03:31:00,VALID,916.736,VALID,0,VALID,99.7508,VALID,0,VALID,16.7308,VALID,156,VALID,0,
2008-05-19, 03:32:00,VALID,916.745,VALID,0,VALID,99.9133,VALID,0,VALID,16.7079,VALID,155,VALID,0,
2008-05-19, 03:33:00,VALID,916.744,VALID,0,VALID,99.6747,VALID,0,VALID,16.7044,VALID,155,VALID,0,
2008-05-19, 03:34:00,VALID,916.71,VALID,0,VALID,99.456,VALID,0,VALID,16.6787,VALID,150,VALID,0,
2008-05-19, 03:35:00,VALID,916.691,VALID,0,VALID,99.4827,VALID,-0.0169808,VALID,16.656,VALID,156,VALID,0,
2008-05-19, 03:36:00,VALID,916.682,VALID,0,VALID,99.7167,VALID,-0.0169808,VALID,16.6722,VALID,155,VALID,0,
2008-05-19, 03:37:00,VALID,916.674,VALID,0,VALID,99.6239,VALID,0,VALID,16.669,VALID,153,VALID,0,